Weather reports worldwide

Advertisment
Navalmoral de la Mata, Spain (8254): temperature & dewpoint: 10.07.2018 18:00:00 - 16.07.2018 18:00:00 (CEST)Navalmoral de la Mata, Spain (8254): wind speed & gusts: 10.07.2018 18:00:00 - 16.07.2018 18:00:00 (CEST)Navalmoral de la Mata, Spain (8254): wind direction: 10.07.2018 18:00:00 - 16.07.2018 18:00:00 (CEST)Navalmoral de la Mata, Spain (8254): reduced air pressure: 10.07.2018 18:00:00 - 16.07.2018 18:00:00 (CEST)Navalmoral de la Mata, Spain (8254): visibility: 10.07.2018 18:00:00 - 16.07.2018 18:00:00 (CEST)Navalmoral de la Mata, Spain (8254): sunshine duration: 10.07.2018 18:00:00 - 16.07.2018 18:00:00 (CEST)Navalmoral de la Mata, Spain (8254): precipitation: 10.07.2018 18:00:00 - 16.07.2018 18:00:00 (CEST)
Date & Time tt [°C] td [°C] ff [km/h] ff [kn] fx [km/h] fx [kn] dd ppp [hPa] vv [km] sd [min] rr [mm]
16.07.2018 18:00:00 - - - - - - - - - - -
16.07.2018 17:00:00 32,7 8,3 8 4 27 15 W 1015,2 20 60 0,0
16.07.2018 16:00:00 32,1 7,7 10 6 27 14 SSW 1015,5 20 60 0,0
16.07.2018 15:00:00 31,4 7,1 13 7 28 15 W 1016,3 20 60 0,0
16.07.2018 14:00:00 30,9 8,0 8 4 27 15 NNW 1016,9 20 60 -
16.07.2018 13:00:00 29,3 7,8 9 5 23 13 WNW 1017,4 20 60 0,0
16.07.2018 12:00:00 27,0 11,1 9 5 25 13 W 1017,9 20 60 0,0
16.07.2018 11:00:00 24,5 12,1 10 5 20 11 W 1018,3 20 60 0,0
16.07.2018 10:00:00 22,3 12,5 7 4 17 9 WNW 1018,6 20 60 0,0
16.07.2018 09:00:00 20,4 12,3 4 2 19 10 W 1018,1 20 60 0,0
16.07.2018 08:00:00 18,0 12,6 10 5 16 8 WSW 1018,3 20 48 -
16.07.2018 07:00:00 16,7 12,0 10 5 17 9 WSW 1018,0 20 0 0,0
16.07.2018 06:00:00 17,0 12,1 9 5 18 10 WSW 1017,5 20 0 0,0
16.07.2018 05:00:00 17,9 12,1 9 5 19 11 WSW 1017,4 20 0 0,0
16.07.2018 04:00:00 18,9 11,7 11 6 26 14 WSW 1017,3 20 0 0,0
16.07.2018 03:00:00 19,1 11,9 14 8 28 15 WSW 1017,2 20 0 0,0
16.07.2018 02:00:00 19,7 12,2 14 8 28 15 W 1017,5 20 0 -
16.07.2018 01:00:00 19,0 13,2 11 6 21 11 SW 1017,7 20 0 0,0
16.07.2018 00:00:00 19,9 13,2 8 4 29 16 WSW 1017,6 20 0 0,0
15.07.2018 23:00:00 20,7 12,4 11 6 50 27 W 1017,3 20 0 0,0
15.07.2018 22:00:00 24,7 7,3 15 8 29 16 W 1015,5 20 0 0,0
15.07.2018 21:00:00 26,2 6,7 9 5 25 13 WNW 1014,8 20 7 0,0
15.07.2018 20:00:00 27,5 7,8 8 4 29 16 NNW 1014,4 20 1 -
15.07.2018 19:00:00 28,6 7,3 10 5 31 17 WNW 1014,5 20 19 0,0
15.07.2018 18:00:00 28,8 6,8 10 6 38 20 W 1014,9 20 34 0,0
15.07.2018 17:00:00 29,4 6,7 15 8 34 19 W 1015,1 20 56 0,0
15.07.2018 16:00:00 29,0 8,1 12 7 36 19 NW 1015,4 20 56 0,0
15.07.2018 15:00:00 28,0 8,8 12 7 30 16 WNW 1015,8 20 34 0,0
15.07.2018 14:00:00 27,4 9,3 15 8 36 20 W 1016,5 20 38 -
15.07.2018 13:00:00 25,6 11,0 10 6 31 17 WSW 1017,1 20 41 0,0
15.07.2018 12:00:00 25,2 12,1 9 5 28 15 W 1017,4 20 57 0,0
15.07.2018 11:00:00 23,3 12,6 14 8 31 17 WSW 1017,6 20 60 0,0
15.07.2018 10:00:00 21,8 13,5 16 9 35 19 WSW 1017,9 20 60 0,0
15.07.2018 09:00:00 19,9 13,4 16 8 35 19 W 1017,7 20 60 0,0
15.07.2018 08:00:00 18,6 13,1 15 8 28 15 WSW 1017,5 20 25 -
15.07.2018 07:00:00 17,6 12,3 11 6 24 13 WSW 1017,4 20 0 0,0
15.07.2018 06:00:00 18,8 12,1 16 8 27 14 WSW 1016,5 20 0 0,0
15.07.2018 05:00:00 19,6 11,3 15 8 24 13 WSW 1016,2 20 0 0,0
15.07.2018 04:00:00 20,1 10,5 11 6 26 14 SW 1016,0 20 0 0,0
15.07.2018 03:00:00 21,3 10,4 14 7 26 14 WSW 1015,9 20 0 0,0
15.07.2018 02:00:00 22,2 10,6 14 7 29 16 WSW 1015,8 20 0 -
15.07.2018 01:00:00 23,5 10,9 15 8 27 15 W 1015,7 20 0 0,0
15.07.2018 00:00:00 24,6 8,9 12 6 27 14 W 1015,4 20 0 0,0
14.07.2018 23:00:00 25,0 7,6 6 3 14 8 WNW 1014,8 20 0 0,0
14.07.2018 22:00:00 27,2 7,1 6 3 18 10 W 1013,7 20 0 0,0
14.07.2018 21:00:00 29,9 5,9 13 7 26 14 W 1013,1 20 3 0,0
14.07.2018 20:00:00 31,4 4,3 12 7 40 21 WSW 1012,6 20 13 -
14.07.2018 19:00:00 32,4 2,5 17 9 42 23 WSW 1012,9 20 60 0,0
14.07.2018 18:00:00 33,5 1,3 21 11 40 22 W 1013,3 20 60 0,0
14.07.2018 17:00:00 34,4 2,1 14 7 33 18 WSW 1013,2 20 60 0,0
14.07.2018 16:00:00 33,2 8,0 7 4 19 11 ESE 1013,8 20 60 0,0
14.07.2018 15:00:00 32,6 7,4 6 3 21 11 ESE 1014,3 20 59 0,0
14.07.2018 14:00:00 32,0 8,9 6 3 21 12 SW 1015,0 20 55 -
14.07.2018 13:00:00 30,9 9,7 5 3 24 13 W 1015,4 20 60 0,0
14.07.2018 12:00:00 29,1 9,8 5 3 23 12 NNW 1015,8 20 60 0,0
14.07.2018 11:00:00 27,5 9,8 9 5 24 13 SW 1016,2 20 60 0,0
14.07.2018 10:00:00 25,3 11,4 4 2 10 6 W 1016,4 20 60 0,0
14.07.2018 09:00:00 22,9 12,5 3 2 9 5 NW 1016,4 20 60 0,0
14.07.2018 08:00:00 19,1 11,7 1 1 5 3 S 1016,3 20 41 -
14.07.2018 07:00:00 17,2 10,8 4 2 8 4 N 1015,9 20 0 0,0
14.07.2018 06:00:00 19,6 10,5 3 2 15 8 NNW 1015,3 20 0 0,0
14.07.2018 05:00:00 21,1 10,5 10 5 17 9 WSW 1014,9 20 0 0,0
14.07.2018 04:00:00 22,1 10,3 11 6 19 10 WSW 1014,7 20 0 0,0
14.07.2018 03:00:00 23,3 9,7 11 6 22 12 SW 1014,2 20 0 0,0
14.07.2018 02:00:00 23,3 10,0 13 7 21 11 SW 1014,2 20 0 -
14.07.2018 01:00:00 23,8 10,2 12 7 17 9 SW 1014,5 20 0 0,0
14.07.2018 00:00:00 24,3 10,9 10 6 16 9 WSW 1014,2 20 0 0,0
13.07.2018 23:00:00 26,9 12,5 6 3 20 11 W 1013,4 20 0 0,0
13.07.2018 22:00:00 28,7 10,9 8 4 18 10 W 1012,2 20 0 0,0
13.07.2018 21:00:00 31,6 5,9 12 7 29 16 WSW 1011,1 20 0 0,0
13.07.2018 20:00:00 32,9 9,7 9 5 18 10 NNW 1010,6 20 7 -
13.07.2018 19:00:00 34,5 9,7 9 5 26 14 WNW 1010,5 20 60 0,0
13.07.2018 18:00:00 35,2 10,3 8 4 23 12 WNW 1010,9 20 57 0,0
13.07.2018 17:00:00 33,3 10,6 5 3 23 13 NW 1011,6 20 31 0,0
13.07.2018 16:00:00 33,9 12,3 8 4 31 17 WNW 1011,9 20 50 0,0
13.07.2018 15:00:00 33,4 12,4 5 3 21 11 NE 1012,0 20 60 0,0
13.07.2018 14:00:00 32,5 12,2 6 3 16 9 NE 1012,8 20 59 -
13.07.2018 13:00:00 30,9 13,3 6 3 18 10 NW 1013,4 17 60 0,0
13.07.2018 12:00:00 29,1 14,1 8 5 20 11 W 1013,8 20 60 0,0
13.07.2018 11:00:00 27,5 13,8 6 3 15 8 W 1014,0 20 60 0,0
13.07.2018 10:00:00 25,8 14,2 3 2 9 5 NW 1014,2 19 60 0,0
13.07.2018 09:00:00 23,1 13,9 4 2 10 6 E 1014,4 20 60 0,0
13.07.2018 08:00:00 19,4 13,6 1 1 5 3 ESE 1014,5 20 34 -
13.07.2018 07:00:00 17,8 12,8 3 2 9 5 SW 1014,3 20 0 0,0
13.07.2018 06:00:00 19,3 13,5 7 4 12 7 ENE 1013,9 20 0 0,0
13.07.2018 05:00:00 20,6 13,8 3 2 9 5 SW 1013,1 20 0 0,0
13.07.2018 04:00:00 23,0 14,0 6 4 22 12 W 1012,3 20 0 0,0
13.07.2018 03:00:00 23,2 13,1 14 7 23 12 WSW 1011,9 20 0 0,0
13.07.2018 02:00:00 23,8 11,8 14 8 24 13 WSW 1011,9 20 0 -
13.07.2018 01:00:00 21,1 5,0 11 6 19 10 SW 1012,1 20 0 0,0
13.07.2018 00:00:00 21,7 6,7 5 3 8 4 WSW 1011,8 20 0 0,0
12.07.2018 23:00:00 24,8 5,0 5 3 12 6 W 1011,4 20 0 0,0
12.07.2018 22:00:00 28,4 3,2 6 3 16 9 W 1010,5 20 0 0,0
12.07.2018 21:00:00 31,7 2,9 9 5 24 13 W 1009,9 20 1 0,0
12.07.2018 20:00:00 33,5 4,3 8 4 23 13 W 1009,6 20 10 -
12.07.2018 19:00:00 34,9 2,5 13 7 29 16 WSW 1009,5 20 60 0,0
12.07.2018 18:00:00 35,2 4,6 8 4 27 15 W 1009,7 20 60 0,0
12.07.2018 17:00:00 34,6 6,8 14 7 30 16 WSW 1010,1 20 55 0,0
12.07.2018 16:00:00 34,9 9,3 7 4 26 14 WNW 1010,5 20 51 0,0
12.07.2018 15:00:00 33,2 9,9 11 6 26 14 N 1011,2 20 55 0,0
12.07.2018 14:00:00 32,0 10,6 8 5 24 13 W 1012,0 20 52 -
12.07.2018 13:00:00 31,3 10,6 11 6 24 13 W 1012,6 20 60 0,0
12.07.2018 12:00:00 29,8 12,6 5 3 16 9 WNW 1013,0 20 60 0,0
12.07.2018 11:00:00 28,2 14,0 4 2 10 6 WSW 1013,0 20 60 0,0
12.07.2018 10:00:00 26,1 14,5 3 2 9 5 WNW 1013,2 20 60 0,0
12.07.2018 09:00:00 23,7 15,2 4 2 8 5 N 1013,1 20 60 0,0
12.07.2018 08:00:00 19,9 16,6 3 2 8 5 N 1013,3 14 28 -
12.07.2018 07:00:00 18,0 15,4 5 3 9 5 ENE 1013,0 12 0 0,0
12.07.2018 06:00:00 18,6 15,6 3 2 7 4 SE 1012,5 13 0 0,0
12.07.2018 05:00:00 19,2 15,9 4 2 7 4 ESE 1012,1 14 0 0,0
12.07.2018 04:00:00 19,8 15,4 3 2 7 4 SE 1011,9 13 0 0,0
12.07.2018 03:00:00 20,9 16,0 4 2 10 6 NE 1011,8 16 0 0,0
12.07.2018 02:00:00 23,0 15,6 3 2 11 6 SW 1011,5 20 0 -
12.07.2018 01:00:00 23,8 16,0 10 6 17 9 WSW 1011,4 20 0 0,0
12.07.2018 00:00:00 24,7 16,1 8 5 17 9 WSW 1011,3 20 0 0,0
11.07.2018 23:00:00 25,2 15,8 8 5 15 8 WSW 1011,5 20 0 0,0
11.07.2018 22:00:00 26,5 16,1 8 4 23 12 W 1010,6 20 0 0,0
11.07.2018 21:00:00 28,4 16,3 10 5 30 16 W 1010,0 20 0 0,0
11.07.2018 20:00:00 29,7 14,2 10 6 34 18 WNW 1010,0 20 6 -
11.07.2018 19:00:00 31,9 12,6 15 8 37 20 W 1009,6 20 60 0,0
11.07.2018 18:00:00 32,0 12,2 19 10 36 19 WSW 1009,7 20 60 0,0
11.07.2018 17:00:00 31,3 12,1 19 10 36 20 WSW 1010,4 20 60 0,0
11.07.2018 16:00:00 30,8 13,2 17 9 37 20 WSW 1010,9 20 60 0,0
11.07.2018 15:00:00 30,6 14,7 11 6 32 18 W 1011,7 20 60 0,0
11.07.2018 14:00:00 29,3 15,4 14 8 33 18 WNW 1012,4 20 60 -
11.07.2018 13:00:00 28,0 15,6 12 7 32 17 W 1012,9 19 60 0,0
11.07.2018 12:00:00 27,1 16,0 16 9 29 16 W 1013,4 20 60 0,0
11.07.2018 11:00:00 26,2 16,5 11 6 28 15 W 1013,7 19 60 0,0
11.07.2018 10:00:00 24,7 16,4 15 8 31 17 W 1013,9 20 60 0,0
11.07.2018 09:00:00 23,8 17,3 6 3 14 8 W 1013,6 17 60 0,0
11.07.2018 08:00:00 22,0 17,1 4 2 14 8 WNW 1013,6 15 9 -
11.07.2018 07:00:00 21,3 16,7 4 2 13 7 NW 1013,3 16 0 0,0
11.07.2018 06:00:00 22,1 16,8 10 6 35 19 SSW 1012,6 18 0 0,0
11.07.2018 05:00:00 23,2 16,7 7 4 22 12 N 1011,8 19 0 0,0
11.07.2018 04:00:00 24,0 16,6 17 9 29 16 WSW 1013,1 20 0 0,0
11.07.2018 03:00:00 25,2 16,0 15 8 29 16 WSW 1012,8 20 0 0,0
11.07.2018 02:00:00 26,4 15,8 11 6 30 16 WSW 1012,8 20 0 -
11.07.2018 01:00:00 27,9 14,9 14 8 23 13 W 1012,9 20 0 0,0
11.07.2018 00:00:00 28,4 10,5 10 5 21 11 W 1012,8 20 0 0,0
10.07.2018 23:00:00 28,1 5,6 8 4 18 10 W 1012,5 20 0 0,0
10.07.2018 22:00:00 30,6 2,7 11 6 18 10 WSW 1011,6 20 0 0,0
10.07.2018 21:00:00 33,6 1,3 9 5 26 14 WSW 1011,1 20 0 0,0
10.07.2018 20:00:00 35,6 1,9 14 7 28 15 SW 1010,9 20 8 -
10.07.2018 19:00:00 37,0 2,9 13 7 31 17 SW 1011,1 20 60 0,0
10.07.2018 18:00:00 37,5 3,2 17 9 32 17 SW 1011,4 20 60 0,0

tt = temperature
td = dewpoint
ff = wind speed
fx = gusts
dd = wind direction
ppp = reduced air pressure
vv = visibility
sd = sunshine duration
rr = precipitation

Next stations